Hailey, ID

8:11 AM MDT on August 22, 2017 (GMT -0600)
Friedman Memorial

Weather History for KSUN - October, 2012

Change the Weather History Date:

Monday, October 1, 2012

  Actual Average Record
Temperature  
Mean Temperature 60 °F -  
Max Temperature 75 °F 66 °F 84 °F (2001)
Min Temperature 44 °F 38 °F 30 °F (2002)
Degree Days  
Heating Degree Days 6    
Growing Degree Days 10 (Base 50)    
Moisture  
Dew Point 33 °F    
Average Humidity 46    
Maximum Humidity 63    
Minimum Humidity 24    
Precipitation  
Precipitation 0.00 in - - ()
Sea Level Pressure  
Sea Level Pressure 30.30 in    
Wind  
Wind Speed 8 mph (NW)    
Max Wind Speed 12 mph    
Max Gust Speed -    
Visibility 10 miles    
Events      
Averages and records for this station are not official NWS values.
T = Trace of Precipitation, MM = Missing Value Source: NWS Daily Summary

Daily Weather History Graph

Daily Weather History Graph

Search for Another Location

Airport or City:

Trip Planner

Search our weather history database for the weather conditions in past years. The results will help you decide how hot, cold, wet, or windy it might be!

Date:

Astronomy

Oct. 01, 2012 Rise Set
Actual Time 7:35 AM MDT 7:17 PM MDT
Civil Twilight 7:06 AM MDT 7:45 PM MDT
Nautical Twilight 6:33 AM MDT 8:18 PM MDT
Astronomical Twilight 6:00 AM MDT 8:52 PM MDT
Moon 7:51 PM MDT (10/1) 9:13 AM MDT (10/1)
Length of Visible Light 12h 38m
Length of Day
11h 41m
Full, 97% of the Moon is Illuminated
Oct 1
Full
Oct 8
Last Quarter
Oct 15
New
Oct 21
First Quarter
Oct 29
Full

Hourly Weather History & Observations

Time (MDT) Temp. Windchill Dew Point Humidity Pressure Visibility Wind Dir Wind Speed Gust Speed Precip Events Conditions
12:15 AM 55.4 °F - 30.2 °F 38% 30.31 in 10.0 mi NW 8.1 mph - N/A   Clear
12:35 AM 55.4 °F - 30.2 °F 38% 30.31 in 10.0 mi NW 8.1 mph - N/A   Clear
12:55 AM 55.4 °F - 30.2 °F 38% 30.31 in 10.0 mi NW 8.1 mph - N/A   Clear
1:15 AM 53.6 °F - 32.0 °F 44% 30.32 in 10.0 mi WNW 8.1 mph - N/A   Clear
1:35 AM 53.6 °F - 30.2 °F 41% 30.32 in 10.0 mi WNW 9.2 mph - N/A   Clear
1:55 AM 53.6 °F - 30.2 °F 41% 30.32 in 10.0 mi NW 6.9 mph - N/A   Clear
2:15 AM 53.6 °F - 30.2 °F 41% 30.33 in 10.0 mi NW 8.1 mph - N/A   Clear
2:35 AM 51.8 °F - 32.0 °F 47% 30.33 in 10.0 mi West 6.9 mph - N/A   Clear
2:55 AM 53.6 °F - 30.2 °F 41% 30.34 in 10.0 mi NW 8.1 mph - N/A   Clear
3:15 AM 51.8 °F - 30.2 °F 44% 30.34 in 10.0 mi NNW 10.4 mph - N/A   Clear
3:35 AM 51.8 °F - 30.2 °F 44% 30.34 in 10.0 mi NW 9.2 mph - N/A   Clear
3:55 AM 50.0 °F - 32.0 °F 50% 30.34 in 10.0 mi NNW 4.6 mph - N/A   Clear
4:15 AM 50.0 °F - 30.2 °F 47% 30.34 in 10.0 mi NW 9.2 mph - N/A   Clear
4:35 AM 50.0 °F - 32.0 °F 50% 30.35 in 10.0 mi NNW 8.1 mph - N/A   Clear
4:55 AM 50.0 °F - 32.0 °F 50% 30.35 in 10.0 mi WNW 9.2 mph - N/A   Clear
5:15 AM 48.2 °F - 32.0 °F 54% 30.36 in 10.0 mi WNW 9.2 mph - N/A   Clear
5:35 AM 48.2 °F - 30.2 °F 50% 30.36 in 10.0 mi NW 9.2 mph - N/A   Clear
5:55 AM 46.4 °F 41.5 °F 32.0 °F 57% 30.36 in 10.0 mi NW 10.4 mph - N/A   Clear
6:15 AM 46.4 °F 41.9 °F 32.0 °F 57% 30.36 in 10.0 mi WNW 9.2 mph - N/A   Clear
6:35 AM 44.6 °F 39.2 °F 32.0 °F 61% 30.37 in 10.0 mi NW 10.4 mph - N/A   Clear
6:55 AM 44.6 °F 39.2 °F 30.2 °F 57% 30.38 in 10.0 mi NW 10.4 mph - N/A   Clear
7:51 AM 44.6 °F 39.2 °F 30.2 °F 57% 30.38 in 10.0 mi WNW 10.4 mph - N/A   Clear
8:47 AM 46.4 °F 41.5 °F 30.2 °F 53% 30.40 in 10.0 mi WNW 10.4 mph - N/A   Clear
10:47 AM 60.8 °F - 30.2 °F 31% 30.38 in 10.0 mi NW 8.1 mph - N/A   Clear
11:47 AM 66.2 °F - 33.8 °F 30% 30.36 in 10.0 mi SE 6.9 mph - N/A   Clear
12:47 PM 69.8 °F - 33.8 °F 27% 30.34 in 10.0 mi SE 9.2 mph - N/A   Clear
3:55 PM 75.2 °F - 35.6 °F 24% 30.25 in 10.0 mi SE 11.5 mph - N/A   Clear
5:47 PM 73.4 °F - 35.6 °F 25% 30.22 in 10.0 mi ESE 8.1 mph - N/A   Clear
6:50 PM 64.4 °F - 42.8 °F 45% 30.20 in 10.0 mi Calm Calm - N/A   Clear
7:47 PM 57.2 °F - 44.6 °F 63% 30.19 in 10.0 mi Calm Calm - N/A   Clear
8:47 PM 55.4 °F - 42.8 °F 63% 30.19 in 10.0 mi Calm Calm - N/A   Clear
9:50 PM 55.4 °F - 35.6 °F 47% 30.19 in - Calm Calm - N/A   Clear
10:47 PM 53.6 °F - 35.6 °F 51% 30.19 in - WNW 8.1 mph - N/A   Clear
11:15 PM 53.6 °F - 33.8 °F 47% 30.18 in 10.0 mi WNW 9.2 mph - N/A   Clear
11:35 PM 51.8 °F - 33.8 °F 50% 30.18 in 10.0 mi NW 9.2 mph - N/A   Clear
11:55 PM 51.8 °F - 33.8 °F 50% 30.18 in 10.0 mi NW 8.1 mph - N/A   Clear